EB1HRW Weather Reports


Display with metric or nautical units.
time (UTC)temp
F
wind
direction
speed
MPH
gust
MPH
rain 1hr
in
rain 24hr
in
rain mn
in
humidity
%
barometer
mb
20260504045849 52 248 1.0 3.0 0.00 0.00 0.00 84 1011.4
20260504044349 52 265 0.0 5.0 0.00 0.00 0.00 84 1011.4
20260504041351 52 236 3.0 5.0 0.00 0.00 0.00 84 1011.4
20260504035849 52 256 0.0 4.0 0.00 0.00 0.00 84 1011.4
20260504034350 52 248 0.0 4.0 0.00 0.00 0.00 84 1011.4
20260504032849 52 165 0.0 3.0 0.00 0.00 0.00 84 1011.5
20260504031347 52 271 3.0 5.0 0.00 0.00 0.00 84 1011.6
20260504025848 52 273 3.0 6.0 0.00 0.00 0.00 84 1011.7
20260504024349 51 192 3.0 6.0 0.00 0.00 0.00 84 1011.7
20260504021347 51 210 2.0 7.0 0.00 0.00 0.00 84 1011.7
20260504015848 52 140 5.0 8.0 0.00 0.00 0.00 84 1011.6
20260504014348 52 215 3.0 7.0 0.00 0.00 0.00 84 1011.8
20260504012849 52 128 0.0 0.0 0.00 0.00 0.00 84 1011.8
20260504011347 52 150 0.0 0.0 0.00 0.00 0.00 84 1011.9
20260504005847 52 148 0.0 0.0 0.00 0.00 0.00 84 1011.8
20260504004348 53 259 0.0 0.0 0.00 0.00 0.00 82 1011.8
20260504002848 53 255 0.0 0.0 0.00 0.00 0.00 82 1011.8
20260504001349 54 238 0.0 7.0 0.00 0.00 0.00 82 1011.9
20260503235847 54 258 0.0 0.0 0.00 0.00 0.00 81 1012.0
20260503234348 54 245 0.0 6.0 0.00 0.00 0.00 80 1011.9
20260503232848 54 255 0.0 4.0 0.00 0.00 0.00 79 1011.9
20260503231349 55 202 0.0 6.0 0.00 0.00 0.00 79 1011.8
20260503225847 55 272 0.0 0.0 0.00 0.06 0.06 78 1011.9
20260503224348 55 262 0.0 0.0 0.00 0.06 0.06 77 1011.7
20260503224122 55 262 0.0 0.0 0.00 0.06 0.06 77 1011.7
20260503223948 55 255 0.0 0.0 0.00 0.06 0.06 76 1011.7
20260503223917 55 229 0.0 0.0 0.00 0.06 0.06 77 1011.8
20260503222417 55 222 0.0 0.0 0.00 0.06 0.06 77 1011.9
20260503220917 54 264 0.0 0.0 0.00 0.06 0.06 78 1011.9
20260503215417 55 264 0.0 0.0 0.00 0.06 0.06 77 1011.9
20260503213918 55 263 0.0 0.0 0.00 0.06 0.06 75 1012.1
20260503212417 56 266 0.0 8.0 0.00 0.06 0.06 73 1012.1
20260503210917 56 270 0.0 0.0 0.00 0.06 0.06 71 1012.1
20260503205418 56 278 0.0 0.0 0.00 0.06 0.06 71 1011.8
20260503203917 57 278 0.0 0.0 0.00 0.06 0.06 71 1011.5
20260503202417 57 279 0.0 10.0 0.00 0.06 0.06 71 1011.2
20260503200917 57 266 0.0 9.0 0.00 0.06 0.06 70 1010.8
20260503195418 57 271 0.0 12.0 0.00 0.06 0.06 72 1010.5
20260503193917 57 257 5.0 14.0 0.00 0.06 0.06 71 1010.4
20260503192417 58 253 6.0 23.0 0.00 0.06 0.06 70 1010.3
20260503190918 59 250 10.0 24.0 0.00 0.06 0.06 68 1010.0
20260503185416 61 284 12.0 10.0 0.00 0.06 0.06 59 1009.8
20260503183917 63 251 0.0 11.0 0.00 0.06 0.06 58 1009.4
20260503182418 64 257 6.0 15.0 0.00 0.06 0.06 55 1009.4
20260503180916 64 265 8.0 12.0 0.00 0.06 0.06 52 1009.4
20260503175417 65 249 4.0 17.0 0.00 0.06 0.06 53 1009.3
20260503173918 65 252 9.0 17.0 0.00 0.06 0.06 52 1009.3
20260503172417 65 267 8.0 18.0 0.00 0.06 0.06 53 1009.2
20260503170917 65 275 10.0 14.0 0.00 0.06 0.06 54 1009.2
20260503150917 63 271 8.0 13.0 0.00 0.06 0.06 67 1009.3
20260503080730 51 113 1.0 3.0 0.02 0.03 0.03 74 1013.1
20260503072229 51 269 0.0 0.0 0.02 0.02 0.02 73 1012.9
20260503070730 51 269 0.0 0.0 0.02 0.02 0.02 73 1013.0
20260503052230 49 251 0.0 0.0 0.00 0.00 0.00 76 1012.6